Location: Bishopstone
(51.0167°N, 1.9000°W)
Time: 18:13:20
(UTC+00:00)

SL-16 R/B - Visible Passes

Search period start: 15 December 2019 00:00
Search period end: 25 December 2019 00:00
Orbit: 839 x 850 km, 71.0° (Epoch: 14 December)

Date Brightness Start Highest point End Pass type
(mag) Time Alt. Az. Time Alt. Az. Time Alt. Az.
15 Dec 2.2 17:56:17 10° SSW 18:01:59 86° WNW 18:06:14 19° NNE visible
15 Dec 4.1 19:42:29 10° W 19:46:58 23° NW 19:48:08 22° NNW visible
16 Dec 2.2 17:42:11 10° SSW 17:47:53 88° WNW 17:52:44 15° NNE visible
16 Dec 4.0 19:28:18 10° W 19:32:50 24° NW 19:34:37 20° NNW visible
17 Dec 2.2 17:28:04 10° SSW 17:33:47 90° WNW 17:39:11 12° NNE visible
17 Dec 4.1 19:14:08 10° W 19:18:42 24° NW 19:21:04 19° N visible
18 Dec 2.2 17:13:59 10° SSW 17:19:41 88° ESE 17:25:26 10° NNE visible
18 Dec 4.0 18:59:57 10° W 19:04:34 25° NW 19:07:29 17° N visible
19 Dec 2.2 16:59:52 10° SSW 17:05:35 86° ESE 17:11:20 10° NNE visible
19 Dec 4.0 18:45:47 10° W 18:50:26 25° NW 18:53:52 15° N visible
19 Dec 4.9 20:35:19 10° NNW 20:35:45 10° NNW 20:35:45 10° NNW visible
20 Dec 2.3 16:45:46 10° SSW 16:51:28 84° ESE 16:57:13 10° NNE visible
20 Dec 4.0 18:31:36 10° W 18:36:18 25° NW 18:40:13 13° N visible
20 Dec 4.8 20:21:06 10° NNW 20:22:06 11° NNW 20:22:06 11° NNW visible
21 Dec 2.3 16:31:41 10° SSW 16:37:22 81° ESE 16:43:07 10° NNE visible
21 Dec 3.9 18:17:27 10° W 18:22:10 26° NW 18:26:33 11° NNE visible
21 Dec 4.8 20:06:52 10° NNW 20:08:26 11° NNW 20:08:26 11° NNW visible
22 Dec 3.9 18:03:17 10° W 18:08:03 27° NW 18:12:50 10° NNE visible
22 Dec 4.7 19:52:38 10° NNW 19:54:20 11° NNW 19:54:44 11° N visible
23 Dec 3.9 17:49:07 10° W 17:53:55 27° NW 17:58:44 10° NNE visible
23 Dec 4.6 19:38:24 10° NNW 19:40:11 11° NNW 19:41:02 11° N visible
24 Dec 3.8 17:34:57 10° W 17:39:47 28° NW 17:44:39 10° NNE visible
24 Dec 4.6 19:24:11 10° NW 19:26:02 11° NNW 19:27:19 11° N visible
